CW6641 Weather Reports


Display with metric or nautical units.
time (UTC)temp
F
wind
direction
speed
MPH
gust
MPH
rain 1hr
in
rain 24hr
in
rain mn
in
humidity
%
barometer
mb
20260902221016 96 0.0 0.0 0.00 0.00 0.00 44 1016.0
20260902220511 96 0.0 0.0 0.00 0.00 0.00 45 1015.9
20260902220006 96 0.0 0.0 0.00 0.00 0.00 44 1016.0
20260902215502 96 0.0 0.0 0.00 0.00 0.00 44 1015.8
20260902214957 96 0.0 0.0 0.00 0.00 0.00 45 1016.0
20260902214456 96 0.0 0.0 0.00 0.00 0.00 45 1016.1
20260902213955 96 0.0 0.0 0.00 0.00 0.00 45 1016.2
20260902213452 96 0.0 0.0 0.00 0.00 0.00 44 1015.9
20260902212950 96 0.0 0.0 0.00 0.00 0.00 44 1016.1
20260902212447 96 0.0 0.0 0.00 0.00 0.00 44 1016.2
20260902211943 96 0.0 0.0 0.00 0.00 0.00 45 1016.3
20260902211438 96 0.0 0.0 0.00 0.00 0.00 45 1016.2
20260902210933 96 0.0 0.0 0.00 0.00 0.00 44 1016.1
20260902210428 96 0.0 0.0 0.00 0.00 0.00 44 1016.2
20260902205921 96 0.0 0.0 0.00 0.00 0.00 44 1016.3
20260902205416 97 0.0 0.0 0.00 0.00 0.00 44 1016.5
20260902204911 97 0.0 0.0 0.00 0.00 0.00 44 1016.2
20260902204410 97 0.0 0.0 0.00 0.00 0.00 44 1016.4
20260902203907 97 0.0 0.0 0.00 0.00 0.00 45 1016.3
20260902203402 97 0.0 0.0 0.00 0.00 0.00 45 1016.3
20260902202856 97 0.0 0.0 0.00 0.00 0.00 45 1016.3
20260902202352 97 0.0 0.0 0.00 0.00 0.00 45 1016.5
20260902201848 98 0.0 0.0 0.00 0.00 0.00 44 1016.3
20260902201348 98 0.0 0.0 0.00 0.00 0.00 43 1016.7
20260902200843 98 0.0 0.0 0.00 0.00 0.00 45 1016.7
20260902200338 97 0.0 0.0 0.00 0.00 0.00 44 1016.6
20260902195833 97 0.0 0.0 0.00 0.00 0.00 45 1016.7
20260902195333 97 0.0 0.0 0.00 0.00 0.00 44 1016.7
20260902194828 98 0.0 0.0 0.00 0.00 0.00 43 1017.0
20260902194328 98 0.0 0.0 0.00 0.00 0.00 44 1016.9
20260902193823 97 0.0 0.0 0.00 0.00 0.00 43 1017.2
20260902193319 97 0.0 0.0 0.00 0.00 0.00 44 1017.0
20260902192818 96 0.0 0.0 0.00 0.00 0.00 46 1017.2
20260902192316 96 0.0 0.0 0.00 0.00 0.00 47 1017.2
20260902191816 96 0.0 0.0 0.00 0.00 0.00 47 1017.2
20260902191312 95 0.0 0.0 0.00 0.00 0.00 48 1017.2
20260902190807 95 0.0 0.0 0.00 0.00 0.00 47 1017.4
20260902190306 95 0.0 0.0 0.00 0.00 0.00 49 1017.5
20260902185802 95 0.0 0.0 0.00 0.00 0.00 49 1017.3
20260902185257 95 0.0 0.0 0.00 0.00 0.00 49 1017.6
20260902184753 95 0.0 0.0 0.00 0.00 0.00 48 1017.5
20260902184248 96 0.0 0.0 0.00 0.00 0.00 48 1017.6
20260902183744 96 0.0 0.0 0.00 0.00 0.00 47 1017.4
20260902183240 96 0.0 0.0 0.00 0.00 0.00 47 1017.5
20260902182736 96 0.0 0.0 0.00 0.00 0.00 47 1017.5
20260902182232 96 0.0 0.0 0.00 0.00 0.00 46 1017.6
20260902181729 96 0.0 0.0 0.00 0.00 0.00 47 1017.5
20260902181228 96 0.0 0.0 0.00 0.00 0.00 48 1017.7
20260902180723 95 0.0 0.0 0.00 0.00 0.00 47 1017.7
20260902180218 95 0.0 0.0 0.00 0.00 0.00 47 1017.7
20260902175713 95 0.0 0.0 0.00 0.00 0.00 48 1017.8
20260902175209 95 0.0 0.0 0.00 0.00 0.00 49 1017.8
20260902174705 95 0.0 0.0 0.00 0.00 0.00 49 1017.8
20260902174201 94 0.0 0.0 0.00 0.00 0.00 51 1018.1
20260902173656 94 0.0 0.0 0.00 0.00 0.00 52 1018.0
20260902173151 94 0.0 0.0 0.00 0.00 0.00 49 1018.1
20260902172645 94 0.0 0.0 0.00 0.00 0.00 51 1018.2
20260902172144 93 0.0 0.0 0.00 0.00 0.00 52 1018.2
20260902171640 93 0.0 0.0 0.00 0.00 0.00 53 1018.1
20260902171135 93 0.0 0.0 0.00 0.00 0.00 52 1018.3
20260902170631 93 0.0 0.0 0.00 0.00 0.00 52 1018.3
20260902170126 93 0.0 0.0 0.00 0.00 0.00 51 1018.4
20260902165626 93 0.0 0.0 0.00 0.00 0.00 53 1018.4
20260902165121 92 0.0 0.0 0.00 0.00 0.00 55 1018.5
20260902164616 92 0.0 0.0 0.00 0.00 0.00 54 1018.6
20260902164115 92 0.0 0.0 0.00 0.00 0.00 54 1018.3
20260902163610 92 0.0 0.0 0.00 0.00 0.00 55 1018.4
20260902163109 92 0.0 0.0 0.00 0.00 0.00 55 1018.8
20260902162608 91 0.0 0.0 0.00 0.00 0.00 54 1018.6
20260902162103 91 0.0 0.0 0.00 0.00 0.00 56 1018.7
20260902161558 91 0.0 0.0 0.00 0.00 0.00 58 1018.9
20260902161054 91 0.0 0.0 0.00 0.00 0.00 58 1019.0
20260902160550 91 0.0 0.0 0.00 0.00 0.00 59 1018.8
20260902160045 90 0.0 0.0 0.00 0.00 0.00 60 1018.8
20260902155538 90 0.0 0.0 0.00 0.00 0.00 60 1018.9
20260902155037 90 0.0 0.0 0.00 0.00 0.00 60 1018.9
20260902154532 89 0.0 0.0 0.00 0.00 0.00 60 1018.9
20260902154027 89 0.0 0.0 0.00 0.00 0.00 59 1018.9
20260902153525 89 0.0 0.0 0.00 0.00 0.00 62 1019.0
20260902153021 89 0.0 0.0 0.00 0.00 0.00 62 1018.9
20260902152518 89 0.0 0.0 0.00 0.00 0.00 62 1019.1
20260902152013 88 0.0 0.0 0.00 0.00 0.00 62 1019.2
20260902151509 88 0.0 0.0 0.00 0.00 0.00 63 1019.2
20260902151008 88 0.0 0.0 0.00 0.00 0.00 64 1019.0
20260902150504 88 0.0 0.0 0.00 0.00 0.00 63 1018.9
20260902145958 87 0.0 0.0 0.00 0.00 0.00 64 1019.1
20260902145454 87 0.0 0.0 0.00 0.00 0.00 65 1019.2
20260902144954 86 0.0 0.0 0.00 0.00 0.00 67 1019.0
20260902144450 86 0.0 0.0 0.00 0.00 0.00 67 1019.1
20260902143944 85 0.0 0.0 0.00 0.00 0.00 69 1019.1
20260902143440 85 0.0 0.0 0.00 0.00 0.00 69 1019.2
20260902142934 84 0.0 0.0 0.00 0.00 0.00 72 1019.1
20260902142430 84 0.0 0.0 0.00 0.00 0.00 73 1019.1
20260902141926 83 0.0 0.0 0.00 0.00 0.00 75 1019.1
20260902141421 83 0.0 0.0 0.00 0.00 0.00 75 1019.0
20260902140920 82 0.0 0.0 0.00 0.00 0.00 74 1019.2
20260902140416 82 0.0 0.0 0.00 0.00 0.00 76 1019.2
20260902135910 81 0.0 0.0 0.00 0.00 0.00 77 1019.3
20260902135406 81 0.0 0.0 0.00 0.00 0.00 77 1019.2
20260902134904 81 0.0 0.0 0.00 0.00 0.00 77 1019.5
20260902134401 81 0.0 0.0 0.00 0.00 0.00 77 1019.3
20260902133855 80 0.0 0.0 0.00 0.00 0.00 78 1019.3
20260902133355 80 0.0 0.0 0.00 0.00 0.00 78 1019.4
20260902132850 80 0.0 0.0 0.00 0.00 0.00 78 1019.2
20260902132345 80 0.0 0.0 0.00 0.00 0.00 79 1019.5
20260902131841 79 0.0 0.0 0.00 0.00 0.00 79 1019.3
20260902131337 79 0.0 0.0 0.00 0.00 0.00 80 1019.4
20260902130836 79 0.0 0.0 0.00 0.00 0.00 80 1019.2
20260902130332 78 0.0 0.0 0.00 0.00 0.00 80 1019.3
20260902125827 78 0.0 0.0 0.00 0.00 0.00 81 1019.2
20260902125323 78 0.0 0.0 0.00 0.00 0.00 81 1019.2
20260902124819 78 0.0 0.0 0.00 0.00 0.00 82 1019.1
20260902124315 77 0.0 0.0 0.00 0.00 0.00 83 1019.1
20260902123809 77 0.0 0.0 0.00 0.00 0.00 83 1019.4
20260902123306 77 0.0 0.0 0.00 0.00 0.00 84 1019.3
20260902122805 76 0.0 0.0 0.00 0.00 0.00 85 1019.2
20260902122305 76 0.0 0.0 0.00 0.00 0.00 85 1019.1
20260902121800 75 0.0 0.0 0.00 0.00 0.00 86 1019.1
20260902121255 75 0.0 0.0 0.00 0.00 0.00 86 1019.3
20260902120745 75 0.0 0.0 0.00 0.00 0.00 86 1019.0
20260902120241 74 0.0 0.0 0.00 0.00 0.00 85 1018.9
20260902115736 74 0.0 0.0 0.00 0.00 0.00 85 1019.0
20260902115232 74 0.0 0.0 0.00 0.00 0.00 85 1018.7
20260902114728 74 0.0 0.0 0.00 0.00 0.00 85 1018.6
20260902114224 74 0.0 0.0 0.00 0.00 0.00 85 1018.8
20260902113723 74 0.0 0.0 0.00 0.00 0.00 85 1018.6
20260902113219 74 0.0 0.0 0.00 0.00 0.00 85 1018.5
20260902112713 74 0.0 0.0 0.00 0.00 0.00 85 1018.4
20260902112210 74 0.0 0.0 0.00 0.00 0.00 84 1018.4
20260902111705 74 0.0 0.0 0.00 0.00 0.00 84 1018.1
20260902111202 74 0.0 0.0 0.00 0.00 0.00 84 1018.4
20260902110657 74 0.0 0.0 0.00 0.00 0.00 84 1018.1
20260902110153 74 0.0 0.0 0.00 0.00 0.00 84 1018.2
20260902105652 74 0.0 0.0 0.00 0.00 0.00 84 1018.1
20260902105148 74 0.0 0.0 0.00 0.00 0.00 84 1018.0
20260902104643 74 0.0 0.0 0.00 0.00 0.00 83 1018.2
20260902104138 74 0.0 0.0 0.00 0.00 0.00 83 1018.1
20260902103637 74 0.0 0.0 0.00 0.00 0.00 83 1018.3
20260902103133 74 0.0 0.0 0.00 0.00 0.00 83 1018.3
20260902102629 75 0.0 0.0 0.00 0.00 0.00 83 1018.2
20260902102126 75 0.0 0.0 0.00 0.00 0.00 83 1018.2
20260902101621 75 0.0 0.0 0.00 0.00 0.00 83 1018.2
20260902101120 75 0.0 0.0 0.00 0.00 0.00 83 1018.3
20260902100615 74 0.0 0.0 0.00 0.00 0.00 83 1018.2
20260902100110 75 0.0 0.0 0.00 0.00 0.00 83 1018.0
20260902095609 75 0.0 0.0 0.00 0.00 0.00 83 1017.9
20260902095108 75 0.0 0.0 0.00 0.00 0.00 83 1018.0
20260902094603 75 0.0 0.0 0.00 0.00 0.00 83 1017.8
20260902094100 75 0.0 0.0 0.00 0.00 0.00 82 1017.6
20260902093554 75 0.0 0.0 0.00 0.00 0.00 82 1017.9
20260902093049 75 0.0 0.0 0.00 0.00 0.00 82 1017.6
20260902092543 75 0.0 0.0 0.00 0.00 0.00 82 1017.8
20260902092039 75 0.0 0.0 0.00 0.00 0.00 82 1017.6
20260902091534 75 0.0 0.0 0.00 0.00 0.00 82 1017.8
20260902091030 75 0.0 0.0 0.00 0.00 0.00 82 1017.7
20260902090526 75 0.0 0.0 0.00 0.00 0.00 82 1017.6
20260902090025 75 0.0 0.0 0.00 0.00 0.00 82 1017.6
20260902085524 75 0.0 0.0 0.00 0.00 0.00 81 1017.6
20260902085020 75 0.0 0.0 0.00 0.00 0.00 81 1017.5
20260902084516 75 0.0 0.0 0.00 0.00 0.00 81 1017.5
20260902084011 75 0.0 0.0 0.00 0.00 0.00 81 1017.5
20260902083507 75 0.0 0.0 0.00 0.00 0.00 81 1017.5
20260902083001 75 0.0 0.0 0.00 0.00 0.00 81 1017.5
20260902082457 76 0.0 0.0 0.00 0.00 0.00 81 1017.5
20260902081953 76 0.0 0.0 0.00 0.00 0.00 81 1017.3
20260902081450 76 0.0 0.0 0.00 0.00 0.00 81 1017.4
20260902080944 76 0.0 0.0 0.00 0.00 0.00 81 1017.5
20260902080440 76 0.0 0.0 0.00 0.00 0.00 81 1017.4
20260902075939 76 0.0 0.0 0.00 0.00 0.00 81 1017.6
20260902075436 76 0.0 0.0 0.00 0.00 0.00 80 1017.4
20260902074931 76 0.0 0.0 0.00 0.00 0.00 80 1017.5
20260902074426 76 0.0 0.0 0.00 0.00 0.00 80 1017.5
20260902073921 76 0.0 0.0 0.00 0.00 0.00 80 1017.5
20260902073417 76 0.0 0.0 0.00 0.00 0.00 80 1017.4
20260902072913 76 0.0 0.0 0.00 0.00 0.00 79 1017.6
20260902072409 77 0.0 0.0 0.00 0.00 0.00 79 1017.3
20260902071905 77 0.0 0.0 0.00 0.00 0.00 79 1017.3
20260902071404 77 0.0 0.0 0.00 0.00 0.00 79 1017.3
20260902070901 77 0.0 0.0 0.00 0.00 0.00 78 1017.4
20260902070356 77 0.0 0.0 0.00 0.00 0.00 78 1017.4
20260902065854 77 0.0 0.0 0.00 0.00 0.00 78 1017.4
20260902065350 77 0.0 0.0 0.00 0.00 0.00 78 1017.5
20260902064845 77 0.0 0.0 0.00 0.00 0.00 78 1017.4
20260902064341 77 0.0 0.0 0.00 0.00 0.00 77 1017.3
20260902063836 78 0.0 0.0 0.00 0.00 0.00 77 1017.4
20260902063331 78 0.0 0.0 0.00 0.00 0.00 77 1017.4
20260902062825 78 0.0 0.0 0.00 0.00 0.00 77 1017.5
20260902062320 78 0.0 0.0 0.00 0.00 0.00 77 1017.4
20260902061819 78 0.0 0.0 0.00 0.00 0.00 76 1017.2
20260902061315 78 0.0 0.0 0.00 0.00 0.00 76 1017.3
20260902060811 78 0.0 0.0 0.00 0.00 0.00 76 1017.4
20260902060307 78 0.0 0.0 0.00 0.00 0.00 75 1017.4
20260902055802 79 0.0 0.0 0.00 0.00 0.00 75 1017.5
20260902055258 79 0.0 0.0 0.00 0.00 0.00 75 1017.5
20260902054753 79 0.0 0.0 0.00 0.00 0.00 75 1017.4
20260902054248 79 0.0 0.0 0.00 0.00 0.00 75 1017.4
20260902053744 79 0.0 0.0 0.00 0.00 0.00 74 1017.4
20260902053243 79 0.0 0.0 0.00 0.00 0.00 74 1017.4
20260902052743 79 0.0 0.0 0.00 0.00 0.00 74 1017.5
20260902052238 80 0.0 0.0 0.00 0.00 0.00 74 1017.4
20260902051737 80 0.0 0.0 0.00 0.00 0.00 73 1017.1
20260902051231 80 0.0 0.0 0.00 0.00 0.00 73 1017.1
20260902050727 80 0.0 0.0 0.00 0.00 0.00 73 1017.2
20260902050217 81 0.0 0.0 0.00 0.00 0.00 72 1017.4
20260902045716 81 0.0 0.0 0.00 0.00 0.00 73 1017.3
20260902045213 81 0.0 0.0 0.00 0.00 0.00 71 1017.2
20260902044708 81 0.0 0.0 0.00 0.00 0.00 70 1017.1
20260902044204 81 0.0 0.0 0.00 0.00 0.00 70 1017.3
20260902043658 81 0.0 0.0 0.00 0.00 0.00 70 1017.0
20260902043154 82 0.0 0.0 0.00 0.00 0.00 70 1017.1
20260902042653 82 0.0 0.0 0.00 0.00 0.00 70 1017.2
20260902042149 82 0.0 0.0 0.00 0.00 0.00 69 1017.3
20260902041648 82 0.0 0.0 0.00 0.00 0.00 69 1017.3
20260902041143 82 0.0 0.0 0.00 0.00 0.00 68 1017.3
20260902040642 82 0.0 0.0 0.00 0.00 0.00 68 1017.3
20260902040138 83 0.0 0.0 0.00 0.00 0.00 68 1017.6
20260902035636 83 0.0 0.0 0.00 0.00 0.00 68 1017.4
20260902035132 83 0.0 0.0 0.00 0.00 0.00 68 1017.3
20260902034630 83 0.0 0.0 0.00 0.00 0.00 67 1017.5
20260902034125 83 0.0 0.0 0.00 0.00 0.00 67 1017.4
20260902033624 83 0.0 0.0 0.00 0.00 0.00 67 1017.4
20260902033120 83 0.0 0.0 0.00 0.00 0.00 68 1017.4
20260902032618 83 0.0 0.0 0.00 0.00 0.00 67 1017.4
20260902032112 83 0.0 0.0 0.00 0.00 0.00 68 1017.3
20260902031607 83 0.0 0.0 0.00 0.00 0.00 68 1017.2
20260902031104 83 0.0 0.0 0.00 0.00 0.00 69 1017.6
20260902030603 83 0.0 0.0 0.00 0.00 0.00 68 1017.5
20260902030057 83 0.0 0.0 0.00 0.00 0.00 68 1017.5
20260902025552 83 0.0 0.0 0.00 0.00 0.00 66 1017.5
20260902025047 84 0.0 0.0 0.00 0.00 0.00 66 1017.2
20260902024543 84 0.0 0.0 0.00 0.00 0.00 66 1017.4
20260902024042 84 0.0 0.0 0.00 0.00 0.00 65 1017.5
20260902023539 85 0.0 0.0 0.00 0.00 0.00 65 1017.5
20260902023033 85 0.0 0.0 0.00 0.00 0.00 64 1017.3
20260902022527 85 0.0 0.0 0.00 0.00 0.00 63 1017.3
20260902022023 86 0.0 0.0 0.00 0.00 0.00 62 1017.4
20260902021519 86 0.0 0.0 0.00 0.00 0.00 62 1017.2
20260902021014 86 0.0 0.0 0.00 0.00 0.00 61 1017.3
20260902020509 87 0.0 0.0 0.00 0.00 0.00 60 1017.2
20260902020005 87 0.0 0.0 0.00 0.00 0.00 59 1017.1
20260902015501 87 0.0 0.0 0.00 0.00 0.00 59 1016.9
20260902014956 88 0.0 0.0 0.00 0.00 0.00 58 1017.0
20260902014452 88 0.0 0.0 0.00 0.00 0.00 58 1017.2
20260902013952 88 0.0 0.0 0.00 0.00 0.00 57 1017.0
20260902013447 88 0.0 0.0 0.00 0.00 0.00 57 1017.0
20260902012942 89 0.0 0.0 0.00 0.00 0.00 57 1016.8
20260902012438 89 0.0 0.0 0.00 0.00 0.00 56 1016.9
20260902011933 89 0.0 0.0 0.00 0.00 0.00 56 1016.9
20260902011428 89 0.0 0.0 0.00 0.00 0.00 56 1016.7
20260902010928 89 0.0 0.0 0.00 0.00 0.00 55 1016.7
20260902010423 89 0.0 0.0 0.00 0.00 0.00 56 1016.6
20260902005922 89 0.0 0.0 0.00 0.00 0.00 55 1016.6
20260902005421 89 0.0 0.0 0.00 0.00 0.00 55 1016.6
20260902004918 89 0.0 0.0 0.00 0.00 0.00 55 1016.5
20260902004417 90 0.0 0.0 0.00 0.00 0.00 55 1016.6
20260902003912 90 0.0 0.0 0.00 0.00 0.00 54 1016.6
20260902003407 90 0.0 0.0 0.00 0.00 0.00 54 1016.5
20260902002903 90 0.0 0.0 0.00 0.00 0.00 54 1016.5
20260902002402 90 0.0 0.0 0.00 0.00 0.00 54 1016.4
20260902001857 91 0.0 0.0 0.00 0.00 0.00 53 1016.5
20260902001352 91 0.0 0.0 0.00 0.00 0.00 53 1016.5
20260902000848 91 0.0 0.0 0.00 0.00 0.00 52 1016.4
20260902000344 92 0.0 0.0 0.00 0.00 0.00 52 1016.5
20260901235838 92 0.0 0.0 0.00 0.00 0.00 51 1016.5
20260901235337 92 0.0 0.0 0.00 0.00 0.00 51 1016.7
20260901234832 93 0.0 0.0 0.00 0.00 0.00 51 1016.5
20260901234326 93 0.0 0.0 0.00 0.00 0.00 50 1016.5
20260901233822 93 0.0 0.0 0.00 0.00 0.00 48 1016.6
20260901233317 93 0.0 0.0 0.00 0.00 0.00 48 1016.5
20260901232813 94 0.0 0.0 0.00 0.00 0.00 48 1016.8
20260901232307 94 0.0 0.0 0.00 0.00 0.00 47 1016.7
20260901231803 94 0.0 0.0 0.00 0.00 0.00 47 1016.7
20260901231254 94 0.0 0.0 0.00 0.00 0.00 46 1016.7
20260901230750 95 0.0 0.0 0.00 0.00 0.00 46 1016.8
20260901230249 95 0.0 0.0 0.00 0.00 0.00 46 1016.7
20260901225744 95 0.0 0.0 0.00 0.00 0.00 46 1016.6
20260901225238 95 0.0 0.0 0.00 0.00 0.00 45 1016.7
20260901224734 95 0.0 0.0 0.00 0.00 0.00 45 1016.7
20260901224231 95 0.0 0.0 0.00 0.00 0.00 45 1016.8
20260901223727 95 0.0 0.0 0.00 0.00 0.00 44 1016.7
20260901223221 95 0.0 0.0 0.00 0.00 0.00 43 1016.6
20260901222717 96 0.0 0.0 0.00 0.00 0.00 44 1016.6
20260901222214 96 0.0 0.0 0.00 0.00 0.00 44 1016.3
20260901221709 96 0.0 0.0 0.00 0.00 0.00 43 1016.4
20260901221205 96 0.0 0.0 0.00 0.00 0.00 44 1016.7